This demonstration page uses our WeatherBlox Daily Observations layout. Learn more.

Left ArrowRight Arrow

Hourly Observations for May 20, 2018

Temp ( °F °C ) Dew Point ( °F °C ) Humidity (%) Winds ( mph kmh ) Pressure ( in mb ) Visibility ( mi km ) Precip ( " mm )
12:15 am 00:15 Mostly Cloudy with Nearby Thunderstorms 71 21.7 55 12.8 57 57 S 15 24 29.83 1010 10 16 0.00 0.00
12:30 am 00:30 Mostly Cloudy with Light Rain 70 21.1 54 12.2 57 57 S 13 20 29.83 1010 10 16 0.00 0.03
12:53 am 00:53 Cloudy 69 20.6 56 13.3 63 63 S 10 17 29.82 1010 10 16 0.00 0.03
1:53 am 01:53 Cloudy 68 20 53 11.7 59 59 SSE 10 17 29.83 1010 10 16 0.00 0.00
2:53 am 02:53 Cloudy 64 17.8 55 12.8 73 73 SE 5 7 29.84 1011 10 16 0.00 0.00
3:53 am 03:53 Mostly Cloudy 64 17.8 51 10.6 63 63 S 7 11 29.85 1011 10 16 0.00 0.00
4:53 am 04:53 Partly Cloudy 61 16.1 50 10 67 67 S 7 11 29.85 1011 10 16 0.00 0.00
5:53 am 05:53 Mostly Cloudy 59 15 50 10 72 72 S 7 11 29.87 1012 10 16 0.00 0.00
6:53 am 06:53 Mostly Sunny 58 14.4 50 10 75 75 S 8 13 29.89 1012 10 16 0.00 0.00
7:53 am 07:53 Cloudy 59 15 50 10 72 72 SSW 5 7 29.91 1013 10 16 0.00 0.00
8:53 am 08:53 Partly Cloudy 61 16.1 50 10 67 67 VRB 3 6 29.92 1013 10 16 0.00 0.00
9:53 am 09:53 Sunny 65 18.3 50 10 59 59 VRB 3 6 29.91 1013 10 16 0.00 0.00
10:53 am 10:53 Sunny 68 20 51 10.6 55 55 SSE 5 7 29.89 1012 10 16 0.00 0.00
11:53 am 11:53 Sunny 71 21.7 52 11.1 51 51 VRB 3 6 29.86 1011 10 16 0.00 0.00
12:53 pm 12:53 Sunny 75 23.9 52 11.1 45 45 VRB 3 6 29.84 1010 10 16 0.00 0.00
1:53 pm 13:53 Sunny 77 25 52 11.1 42 42 VRB 6 9 29.81 1010 10 16 0.00 0.00
2:53 pm 14:53 Sunny 79 26.1 51 10.6 38 38 S 8 13 29.79 1009 10 16 0.00 0.00
3:53 pm 15:53 Sunny 81 27.2 52 11.1 37 37 SE 14 22 29.78 1009 10 16 0.00 0.00
4:53 pm 16:53 Sunny 80 26.7 51 10.6 37 37 S 10 17 29.78 1008 10 16 0.00 0.00
5:53 pm 17:53 Sunny 77 25 50 10 39 39 S 6 9 29.79 1009 10 16 0.00 0.00
6:53 pm 18:53 Sunny 74 23.3 52 11.1 46 46 WNW 6 9 29.79 1009 10 16 0.00 0.00
7:53 pm 19:53 Sunny 73 22.8 51 10.6 46 46 NW 6 9 29.80 1009 10 16 0.00 0.00
8:53 pm 20:53 Clear 70 21.1 51 10.6 51 51 WNW 5 7 29.80 1009 10 16 0.00 0.00
9:53 pm 21:53 Clear 69 20.6 52 11.1 55 55 undefined N/A 29.82 1010 10 16 0.00 0.00
10:53 pm 22:53 Clear 66 18.9 53 11.7 63 63 Calm 29.81 1010 10 16 0.00 0.00
11:53 pm 23:53 Clear 65 18.3 53 11.7 66 66 Calm 29.82 1010 10 16 0.00 0.00

Powered by AerisWeather